Regional Weather Roundup
Issued by NWS

Home | Current Version | Previous Version | Graphics & Text | Print | Product List | Glossary On
Versions: 1 2 3 4 5 6 7 8 9 10 11 12 13 14 15 16 17 18 19 20 21 22 23 24 25 26 27 28 29 30 31 32 33 34 35 36 37 38 39 40 41 42 43 44 45 46 47 48 49 50
860
ASUS43 KFSD 211602
RWRSD

WEATHER ROUNDUP FOR SOUTH DAKOTA
NATIONAL WEATHER SERVICE SIOUX FALLS SD
1000 AM CST TUE FEB 21 2017

NOTE: "FAIR" INDICATES FEW OR NO CLOUDS BELOW 12,000 FEET WITH NO
SIGNIFICANT WEATHER AND/OR OBSTRUCTIONS TO VISIBILITY.


SDZ001>005-009-010-012>017-211700-
NORTHWEST AND NORTH CENTRAL SOUTH DAKOTA

CITY           SKY/WX    TMP DP  RH WIND       PRES   REMARKS
BUFFALO          N/A     54  35  48 W7        29.65F
FAITH            N/A     53  38  56 S7        29.73S
MOBRIDGE       CLOUDY    43  34  70 CALM      29.69S
$$

SDZ012>016-024>037-041>051-057-063-072>074-211700-
SOUTHWEST AND SOUTH CENTRAL SOUTH DAKOTA

CITY           SKY/WX    TMP DP  RH WIND       PRES   REMARKS
RAPID CTY ARPT SUNNY     61  33  35 W17       29.75S
PIERRE         SUNNY     52  33  48 W10       29.73F
CUSTER         SUNNY     48  29  47 W15G30    29.86R
ELLSWORTH AFB  SUNNY     59  33  37 VRB7      29.75S
PHILIP         CLOUDY    61  35  37 W13       29.74F
PINE RIDGE     SUNNY     57  34  41 W22G33    29.81F
SPEARFISH      FAIR      55  32  41 W24G32    29.75S
WINNER         FAIR      63  33  32 W22       29.78S
$$

SDZ004>011-016>023-039-040-211700-
NORTHEAST SOUTH DAKOTA

CITY           SKY/WX    TMP DP  RH WIND       PRES   REMARKS
ABERDEEN       MOSUNNY   41  33  73 S8        29.72S
WATERTOWN      SUNNY     43  35  73 S12       29.74F
BROOKINGS      SUNNY     45  35  68 SW14      29.77F
SISSETON         N/A     47  36  65 CALM      29.69F
$$

SDZ017-020-022-023-036>040-048>070-211700-
SOUTHEAST SOUTH DAKOTA

CITY           SKY/WX    TMP DP  RH WIND       PRES   REMARKS
SIOUX FALLS    MOSUNNY   49  36  61 S15G22    29.82F
HURON          SUNNY     46  34  62 S3        29.75F
CHAMBERLAIN    SUNNY     55  34  43 SW8       29.77S
MITCHELL       SUNNY     53  31  42 SW12      29.79S
YANKTON        SUNNY     54  30  40 S16       29.82F
$$

ABBREVIATIONS USED IN REMARKS
   TC - TEMPERATURE IN CELSIUS
  WCI - WIND CHILL INDEX
   HX - HEAT INDEX
  VSB - VISIBILITY





USA.gov is the U.S. government's official web portal to all federal, state and local government web resources and services.